Cuero, Texas, United States (77954)
Lat: 29.09N, Lon: 97.29W
Wx Zone: TXZ224
Local Info
Past Weather Observations for Today

NOTE: This archive is for the closest National Weather Service station to Cuero. Information may differ from the station used for current weather conditions.

Click here for Long-term Archive

Time Weather Temperature Dewpoint Humidity Pressure Winds Precip Visibility
19:51
Clear
86°F / 30°C 77°F / 25°C 75% 30.04 in
(1017 mb)
S 15 mph
(S 24 kph)
- 10SM
18:51
Clear
90°F / 32°C 72°F / 22°C 55% 30.04 in
(1017 mb)
SSE 16.1 mph
(SSE 26 kph)
- 10SM
17:51
Clear
93°F / 34°C 70°F / 21°C 47% 30.01 in
(1016 mb)
S 13.8 mph
(S 22 kph)
- 10SM
16:51
Clear
97°F / 36°C 73°F / 23°C 47% 30.01 in
(1016 mb)
S 16.1 mph
(S 26 kph)
- 10SM
15:51
Clear
99°F / 37°C 73°F / 23°C 44% 30.04 in
(1017 mb)
SSE 15 mph
(SSE 24 kph)
- 10SM
14:51
Clear
100°F / 38°C 70°F / 21°C 37% 30.04 in
(1017 mb)
Variable 3.5 mph
(Variable 6 kph)
- 10SM
13:51
Partly Cloudy
99°F / 37°C 68°F / 20°C 37% 30.06 in
(1018 mb)
SSE 11.5 mph
(SSE 19 kph)
- 10SM
12:51
Partly Cloudy
97°F / 36°C 70°F / 21°C 42% 30.09 in
(1019 mb)
Calm - 10SM
11:51
Partly Cloudy
97°F / 36°C 72°F / 22°C 44% 30.09 in
(1019 mb)
Variable 6.9 mph
(Variable 11 kph)
- 10SM
10:51
Partly Cloudy
93°F / 34°C 73°F / 23°C 53% 30.12 in
(1020 mb)
SSE 9.2 mph
(SSE 15 kph)
- 10SM
09:51
Partly Cloudy
90°F / 32°C 75°F / 24°C 63% 30.12 in
(1020 mb)
SW 9.2 mph
(SW 15 kph)
- 10SM
08:54
Partly Cloudy
88°F / 31°C 75°F / 24°C 66% 30.12 in
(1020 mb)
S 8.1 mph
(S 13 kph)
- 10SM
08:51
Clear
88°F / 31°C 75°F / 24°C 66% 30.12 in
(1020 mb)
SSE 6.9 mph
(SSE 11 kph)
- 10SM
07:51
Partly Cloudy
84°F / 29°C 79°F / 26°C 84% 30.12 in
(1020 mb)
SSE 6.9 mph
(SSE 11 kph)
- 10SM
07:30
Clear
82°F / 28°C 79°F / 26°C 89% 30.12 in
(1020 mb)
Variable 3.5 mph
(Variable 6 kph)
- 8SM
06:51
Clear
Fog And Mist
79°F / 26°C 79°F / 26°C 100% 30.09 in
(1019 mb)
Calm - 3SM
05:51
Clear
Fog And Mist
79°F / 26°C 75°F / 24°C 89% 30.09 in
(1019 mb)
Calm - 4SM
04:51
Clear
Fog And Mist
77°F / 25°C 75°F / 24°C 94% 30.06 in
(1018 mb)
S 6.9 mph
(S 11 kph)
- 4SM
03:51
Clear
Fog And Mist
77°F / 25°C 75°F / 24°C 94% 30.06 in
(1018 mb)
S 5.8 mph
(S 9 kph)
- 5SM
02:51
Clear
Fog And Mist
77°F / 25°C 75°F / 24°C 94% 30.06 in
(1018 mb)
S 5.8 mph
(S 9 kph)
- 6SM
01:51
Clear
75°F / 24°C 73°F / 23°C 94% 30.06 in
(1018 mb)
S 5.8 mph
(S 9 kph)
- 7SM
00:51
Clear
77°F / 25°C 75°F / 24°C 94% 30.06 in
(1018 mb)
SSE 5.8 mph
(SSE 9 kph)
- 8SM
Time Weather Temperature Dewpoint Humidity Pressure Winds Precip Visibility


Weather for websites

WeatherForYou.com, LLC is not responsible for any damages or problems caused by this service. Current weather conditions are obtained from the closest station including government and personal stations which may have varying degrees of accuracy. Weather forecasts are derived from the NOAA NDFD. Like all things, this site belongs to Jesus Christ... He just trusts me to maintain it. If you have any questions or comments email webmaster@weatherforyou.com

Copyright © 2014, WeatherForYou.com LLC. All rights reserved.